Погода в Большой Картеле

Россия / Хабаровский край     50°23′16″N   137°22′58″E
темп.,
°C
ветер,
м/с
пор.,
м/с
влажн.,
%
обл.,
%
осадки,
мм/ч
давл.,
гПа
погр.,
м
4 марта, чт
чт401:00−15ююз51387100 0.0 1017424
04:00−15ююз4129698 0.0 1015372
07:00−14ююз41296100 0.2 1014414
10:00−10ююз51290100 0.4 1012470
13:00−5ююз61287100 0.2 1009672
16:00−4ююз71386100 0.3 1009735
19:00−6ююз51494100 0.1 1008584
22:00−7ююз41296100 0.1 1009448
5 марта, пт
пт501:00−9зюз2398100 0.1 1008104
04:00−14ссз3791100 0.2 1008266
07:00−16ссз4995100 1.1 1009431
10:00−16ссз61092100 2.5 1011542
13:00−14с5884100 0.5 1012842
16:00−14ссз5785100 0.8 1014978
19:00−17ссз3891100 0.2 1017426
22:00−19ссз3694100 0.3 1021218
6 марта, сб
сб601:00−23ссз129495 0.0 102321
04:00−25ююз009367 0.0 102520
07:00−23ююз489885 0.1 1026344
10:00−22ююз5109192 0.1 1026591
13:00−19ююз61085100 0.1 1025718
16:00−18ююз61184100 0.1 1024729
19:00−20ююз41292100 0.0 1025568
22:00−21ю379791 0.1 1026186
7 марта, вс
вс701:00−20ю3998100 0.1 1025327
04:00−21ю3998100 0.1 1025338
07:00−22ю2998100 0.1 1025301
10:00−18ююз5990100 0.1 1025618
13:00−15ююз5884100 0.1 1022765
16:00−14ююз5982100 0.1 1021772
19:00−17ю2496100 0.0 1021113
22:00−16ю3897100 0.1 1023271
8 марта, пн
пн801:00−17ю2498100 0.1 1022125
04:00−18ю2498100 0.1 102290
07:00−19ю2698100 0.1 1023202
10:00−16ююз4991100 0.1 1022488
13:00−13ююз61086100 0.1 1020635
16:00−11ююз6128290 0.1 1019652
19:00−12ююз51492100 0.0 1019663
22:00−11ююз61492100 0.2 1020685